Regional Weather Roundup
Issued by NWS

Home | Current Version | Previous Version | Graphics & Text | Print | Product List | Glossary On
Versions: 1 2 3 4 5 6 7 8 9 10 11 12 13 14 15 16 17 18 19 20 21 22 23 24 25 26 27 28 29 30 31 32 33 34 35 36 37 38 39 40 41 42 43 44 45 46 47 48 49 50
831
ASUS43 KDMX 270903
RWRIA

WEATHER ROUNDUP FOR IOWA
NATIONAL WEATHER SERVICE DES MOINES IA
400 AM CDT FRI MAY 27 2016

NOTE: "FAIR" INDICATES FEW OR NO CLOUDS BELOW 12,000 FEET WITH NO
SIGNIFICANT WEATHER AND/OR OBSTRUCTIONS TO VISIBILITY.

* - THESE STATIONS ARE NOT NWS STATIONS...THUS NOT UNDER NWS
QUALITY CONTROL.  THEY ALSO DO NOT REPORT WEATHER SUCH
AS PRECIPITATION OR FOG.

IAZ001>003-012>014-020>022-031>034-043>046-271000-
   NORTHWEST IOWA

CITY           SKY/WX    TMP DP  RH WIND       PRES   REMARKS
CARROLL *      MOCLDY    63  59  88 CALM      29.83R
CHEROKEE *     CLOUDY    59  59 100 CALM      29.82S
LE MARS *      CLOUDY    63  57  82 CALM      29.80F
ORANGE CITY *  PTCLDY    61  55  82 CALM      29.80F
SHELDON *      CLOUDY    57  57 100 E7        29.80S
SIOUX CITY     CLOUDY    64  56  75 N5        29.77F
SPENCER        CLOUDY    59  55  87 E3        29.81F
STORM LAKE *   MOCLDY    61  54  77 CALM      29.82F
$$

IAZ055>058-069>071-079>083-090>094-271000-
   SOUTHWEST IOWA

CITY           SKY/WX    TMP DP  RH WIND       PRES   REMARKS
ATLANTIC *     LGT RAIN  63  59  88 S10G21    29.80R
AUDUBON *      LGT RAIN  63  57  82 SW3       29.84R
CLARINDA *       N/A     63  61  94 MISG      29.81F FOG
COUNCIL BLFS * MOCLDY    61  61 100 S13       29.78F
CRESTON *      CLOUDY    63  59  88 SW10      29.81R
HARLAN  *      CLOUDY    63  59  88 SW9G20    29.84R
LAMONI         CLOUDY    61  60  97 S5        29.77F
RED OAK *      LGT RAIN  61  61 100 S9G15     29.79F
SHENANDOAH *   DRIZZLE   63  63 100 S7        29.79F
$$

IAZ047>049-059>061-072>074-084-271000-
   CENTRAL IOWA

CITY           SKY/WX    TMP DP  RH WIND       PRES   REMARKS
AMES           LGT RAIN  62  60  93 N3        29.84R
ANKENY *       CLOUDY    63  61  94 E6        29.80S
BOONE *        CLOUDY    63  59  88 N5        29.83R
CHARITON *     CLOUDY    63  59  88 E5        29.78F
DES MOINES     LGT RAIN  64  59  83 CALM      29.80R
GRINNELL*      CLOUDY    61  59  94 CALM      29.83R
KNOXVILLE *    LGT RAIN  61  59  94 CALM      29.80S
MARSHALLTOWN   CLOUDY    63  60  90 N5        29.83R
NEWTON *       CLOUDY    61  61 100 CALM      29.82R
PELLA *        CLOUDY    61  60  96 CALM      29.82S
PERRY *        RAIN      63  61  94 CALM      29.84R
$$

IAZ004>006-015-016-023>025-035-036-271000-
   NORTH CENTRAL IOWA

CITY           SKY/WX    TMP DP  RH WIND       PRES   REMARKS
ALGONA *       CLOUDY    63  57  82 SE8       29.83S
CLARION *      CLOUDY    63  59  88 E6        29.85F
ESTHERVILLE    CLOUDY    59  57  93 SE5       29.81F
FORT DODGE *   CLOUDY    61  55  82 E3        29.84R
MASON CITY     CLOUDY    61  58  90 NW3       29.86F
FOREST CITY *  CLOUDY    63  55  77 SE6       29.86R
WEBSTER CITY * CLOUDY    63  59  88 E5        29.83S
IOWA FALLS *   CLOUDY    64  59  82 CALM      29.86R
$$

IAZ007>011-017>019-026>030-037>042-050>054-066-271000-
   NORTHEAST IOWA

CITY           SKY/WX    TMP DP  RH WIND       PRES   REMARKS
CEDAR RAPIDS   CLOUDY    62  62 100 E8        29.83F
CHARLES CITY * MOCLDY    63  63 100 CALM      29.86S
CLINTON *      RAIN      63  61  93 NW7       29.89S
DECORAH *      CLOUDY    64  59  82 SE6       29.86R
DUBUQUE        CLOUDY    67  62  84 S17G29    29.89R THUNDER
MONTICELLO *   LGT RAIN  64  61  88 E6        29.87F
OELWEIN *      CLOUDY    64  61  88 SE8       29.88R
WATERLOO       LGT RAIN  63  60  90 E6        29.85R
$$

IAZ064-065-067-068-078-271000-
   EAST CENTRAL IOWA

CITY           SKY/WX    TMP DP  RH WIND       PRES   REMARKS
DAVENPORT      CLOUDY    63  60  90 NE8       29.85F
IOWA CITY      CLOUDY    64  61  90 E9        29.85S
MT. PLEASANT * CLOUDY    66  64  94 E6        29.81F
MUSCATINE *    CLOUDY    64  61  88 NE5       29.83F
QUAD CITIES    LGT RAIN  64  61  90 NE8       29.83F
$$

IAZ062-063-075>077-085>089-095>099-271000-
   SOUTHEAST IOWA

CITY           SKY/WX    TMP DP  RH WIND       PRES   REMARKS
BURLINGTON     CLOUDY    63  62  97 E7        29.81F
FAIRFIELD *      N/A    N/A N/A N/A MISG        N/A
FORT MADISON * CLOUDY    63  63 100 E7        29.81F
KEOKUK *       CLOUDY    63  61  94 E6        29.80F
OSKALOOSA *      N/A     61  59  94 SE10      29.81F
OTTUMWA        MOCLDY    61  60  97 SE6       29.80F
WASHINGTON *   CLOUDY    63  63 100 E10       29.84S
$$

ABBREVIATIONS USED IN REMARKS
   TC - TEMPERATURES IN CELSIUS
  WCI - WIND CHILL INDEX
   HX - HEAT INDEX
  VSB - VISIBILITY
$$





USA.gov is the U.S. government's official web portal to all federal, state and local government web resources and services.